Date String (YYYY-MM-DD hh:mm:ss) UTC,Instrument flags,absolute air pressure of the measurement (hPa),sample flow rate (lpm),inlet stack bypass flow (lpm),air temperature of the measurement (°C),ambient temperature measured by the external sensor (°C),aerosol sample conditioner tube jacket temperature (°C),OPC LED temperature (°C),internal box temperature (°C),relative humidity of the measurement (%),span deviation,mass concentration of particles derived from Lorenz-Mie calculation of OPC scattering (μg/m³),mass concentration of particles derived from Lorenz-Mie calculation of OPC scattering (μg/m³),mass concentration of particles derived from Lorenz-Mie calculation of OPC scattering (μg/m³)
DateTimeUTC,F1_M11,P_M11,Q1_M11,Q2_M11,T1_M11,T2_M11,T3_M11,T4_M11,T5_M11,U1_M11,ZSPAN_M11,X0_M11,X2_M11,X1_M11
2024-04-27 16:00:00,SystemResetWarning,0824.0,4.99,000.00,021.8,021.1,000.0,030.4,023.6,024.8,0000.0,0004.17,0002.89,0002.32
2024-04-27 16:01:00,SystemResetWarning,0824.0,4.99,000.00,021.8,021.1,000.0,030.4,023.6,024.7,0000.0,0004.18,0002.86,0002.33
2024-04-27 16:02:00,SystemResetWarning,0824.0,4.99,000.00,021.8,021.1,000.0,030.4,023.6,024.7,0000.0,0004.17,0002.85,0002.35
2024-04-27 16:03:00,SystemResetWarning,0824.0,5.01,000.00,021.8,021.0,000.0,030.4,023.6,024.7,0000.0,0004.23,0002.88,0002.34
2024-04-27 16:04:00,SystemResetWarning,0824.0,5.01,000.00,021.8,021.0,000.0,030.3,023.6,024.8,0000.0,0004.28,0002.92,0002.35
2024-04-27 16:05:00,SystemResetWarning,0824.0,5.00,000.00,021.8,021.0,000.0,030.3,023.5,025.4,0000.0,0004.44,0002.98,0002.37
2024-04-27 16:06:00,SystemResetWarning,0824.0,5.00,000.00,021.7,021.0,000.0,030.3,023.5,025.3,0000.0,0004.59,0003.07,0002.40
2024-04-27 16:07:00,SystemResetWarning,0824.0,5.00,000.00,021.7,021.0,000.0,030.3,023.5,025.0,0000.0,0004.46,0003.05,0002.44
2024-04-27 16:08:00,SystemResetWarning,0824.0,5.00,000.00,021.7,021.0,000.0,030.3,023.5,024.9,0000.0,0004.41,0003.06,0002.47
2024-04-27 16:09:00,SystemResetWarning,0824.0,5.00,000.00,021.7,021.0,000.0,030.3,023.5,024.9,0000.0,0004.62,0003.13,0002.51
2024-04-27 16:10:00,SystemResetWarning,0824.0,5.00,000.00,021.7,021.0,000.0,030.3,023.5,024.9,0000.0,0004.92,0003.21,0002.55
2024-04-27 16:11:00,SystemResetWarning,0824.0,5.00,000.00,021.7,021.0,000.0,030.3,023.5,024.9,0000.0,0005.06,0003.26,0002.61
2024-04-27 16:12:00,SystemResetWarning,0824.1,5.00,000.00,021.7,021.0,000.0,030.3,023.5,025.0,0000.0,0005.27,0003.34,0002.68
2024-04-27 16:13:00,SystemResetWarning,0824.2,5.00,000.00,021.7,021.0,000.0,030.3,023.5,025.0,0000.0,0005.48,0003.38,0002.72
2024-04-27 16:14:00,SystemResetWarning,0824.2,5.01,000.00,021.7,021.0,000.0,030.3,023.5,025.1,0000.0,0005.64,0003.43,0002.77
2024-04-27 16:15:00,SystemResetWarning,0824.1,4.99,000.00,021.7,021.0,000.0,030.3,023.5,025.2,0000.0,0005.69,0003.45,0002.80
2024-04-27 16:16:00,SystemResetWarning,0824.2,4.99,000.00,021.7,021.0,000.0,030.3,023.5,025.1,0000.0,0005.75,0003.45,0002.83
2024-04-27 16:17:00,SystemResetWarning,0824.3,5.00,000.00,021.7,021.0,000.0,030.3,023.5,025.0,0000.0,0005.80,0003.46,0002.86
2024-04-27 16:18:00,SystemResetWarning,0824.3,5.00,000.00,021.7,021.0,000.0,030.3,023.5,025.1,0000.0,0005.78,0003.46,0002.86
2024-04-27 16:19:00,SystemResetWarning,0824.2,5.00,000.00,021.7,021.0,000.0,030.3,023.5,025.1,0000.0,0005.90,0003.50,0002.89
2024-04-27 16:20:00,SystemResetWarning,0824.1,5.01,000.00,021.7,021.0,000.0,030.3,023.5,025.0,0000.0,0005.94,0003.50,0002.89
2024-04-27 16:21:00,SystemResetWarning,0824.1,5.00,000.00,021.7,021.0,000.0,030.2,023.5,025.0,0000.0,0005.95,0003.49,0002.89
2024-04-27 16:22:00,SystemResetWarning,0824.2,4.99,000.00,021.7,021.0,000.0,030.2,023.5,025.1,0000.0,0005.90,0003.49,0002.87
2024-04-27 16:23:00,SystemResetWarning,0824.0,4.99,000.00,021.7,021.0,000.0,030.2,023.5,025.2,0000.0,0005.85,0003.47,0002.87
2024-04-27 16:24:00,SystemResetWarning,0824.0,5.01,000.00,021.7,021.0,000.0,030.2,023.5,025.2,0000.0,0005.98,0003.50,0002.87
2024-04-27 16:25:00,SystemResetWarning,0824.0,5.01,000.00,021.7,021.0,000.0,030.2,023.5,025.3,0000.0,0006.10,0003.53,0002.87
2024-04-27 16:26:00,SystemResetWarning,0823.9,5.00,000.00,021.7,021.0,000.0,030.2,023.5,025.4,0000.0,0006.15,0003.53,0002.88
2024-04-27 16:27:00,SystemResetWarning,0824.0,5.00,000.00,021.7,021.0,000.0,030.2,023.5,025.3,0000.0,0006.59,0003.57,0002.92
2024-04-27 16:28:00,SystemResetWarning,0824.0,5.00,000.00,021.7,021.0,000.0,030.2,023.5,025.4,0000.0,0006.51,0003.56,0002.92
2024-04-27 16:29:00,SystemResetWarning,0824.0,4.99,000.00,021.7,021.0,000.0,030.2,023.5,025.5,0000.0,0006.67,0003.60,0002.94
2024-04-27 16:30:00,SystemResetWarning,0824.0,5.00,000.00,021.7,021.0,000.0,030.2,023.5,025.6,0000.0,0006.69,0003.61,0002.95
2024-04-27 16:31:00,SystemResetWarning,0823.9,5.01,000.00,021.7,020.9,000.0,030.2,023.4,025.7,0000.0,0006.79,0003.63,0002.97
2024-04-27 16:32:00,SystemResetWarning,0823.9,5.00,000.00,021.6,020.9,000.0,030.2,023.4,025.7,0000.0,0006.75,0003.62,0002.98
2024-04-27 16:33:00,SystemResetWarning,0823.9,5.01,000.00,021.6,020.9,000.0,030.2,023.4,025.8,0000.0,0006.86,0003.64,0002.99
2024-04-27 16:34:00,SystemResetWarning,0823.9,4.99,000.00,021.6,020.9,000.0,030.2,023.4,025.9,0000.0,0006.90,0003.66,0003.00
2024-04-27 16:35:00,SystemResetWarning,0823.9,5.00,000.00,021.6,020.9,000.0,030.2,023.4,025.9,0000.0,0006.69,0003.63,0003.02
2024-04-27 16:36:00,SystemResetWarning,0823.9,5.01,000.00,021.6,020.9,000.0,030.1,023.3,026.1,0000.0,0006.51,0003.60,0003.03
2024-04-27 16:37:00,SystemResetWarning,0823.8,5.01,000.00,021.6,020.9,000.0,030.1,023.3,026.3,0000.0,0006.58,0003.63,0003.05
2024-04-27 16:38:00,SystemResetWarning,0823.9,4.99,000.00,021.6,020.8,000.0,030.1,023.3,026.7,0000.0,0006.26,0003.62,0003.05
2024-04-27 16:39:00,SystemResetWarning,0823.8,4.99,000.00,021.6,020.8,000.0,030.1,023.3,026.6,0000.0,0006.46,0003.67,0003.08
2024-04-27 16:40:00,SystemResetWarning,0823.8,5.01,000.00,021.6,020.8,000.0,030.1,023.3,026.5,0000.0,0006.47,0003.68,0003.09
2024-04-27 16:41:00,SystemResetWarning,0823.8,5.01,000.00,021.5,020.8,000.0,030.1,023.3,026.5,0000.0,0006.66,0003.71,0003.09
2024-04-27 16:42:00,SystemResetWarning,0823.8,4.99,000.00,021.5,020.8,000.0,030.1,023.3,026.6,0000.0,0007.42,0003.73,0003.09
2024-04-27 16:43:00,SystemResetWarning,0823.8,4.99,000.00,021.5,020.8,000.0,030.1,023.3,026.6,0000.0,0007.60,0003.78,0003.10
2024-04-27 16:44:00,SystemResetWarning,0823.8,5.00,000.00,021.5,020.8,000.0,030.1,023.2,026.5,0000.0,0007.62,0003.78,0003.11
2024-04-27 16:45:00,SystemResetWarning,0823.8,5.00,000.00,021.5,020.8,000.0,030.0,023.2,026.4,0000.0,0007.68,0003.77,0003.11
2024-04-27 16:46:00,SystemResetWarning,0823.8,5.01,000.00,021.5,020.7,000.0,030.0,023.2,026.1,0000.0,0007.76,0003.80,0003.12
2024-04-27 16:47:00,SystemResetWarning,0823.8,5.00,000.00,021.5,020.7,000.0,030.0,023.2,026.4,0000.0,0007.81,0003.80,0003.12
2024-04-27 16:48:00,SystemResetWarning,0823.8,4.99,000.00,021.5,020.7,000.0,030.0,023.2,026.1,0000.0,0007.83,0003.80,0003.11
2024-04-27 16:49:00,SystemResetWarning,0823.8,4.99,000.00,021.5,020.7,000.0,030.0,023.2,025.8,0000.0,0007.95,0003.84,0003.11
2024-04-27 16:50:00,SystemResetWarning,0823.8,4.99,000.00,021.5,020.8,000.0,030.0,023.3,025.8,0000.0,0007.86,0003.81,0003.11
2024-04-27 16:51:00,SystemResetWarning,0823.8,5.00,000.00,021.5,020.7,000.0,030.0,023.2,026.0,0000.0,0007.88,0003.80,0003.10
2024-04-27 16:52:00,SystemResetWarning,0823.8,5.00,000.00,021.4,020.7,000.0,030.0,023.2,025.9,0000.0,0007.80,0003.78,0003.09
2024-04-27 16:53:00,SystemResetWarning,0823.8,5.00,000.00,021.4,020.7,000.0,030.0,023.2,025.7,0000.0,0007.15,0003.74,0003.11
2024-04-27 16:54:00,SystemResetWarning,0823.8,5.01,000.00,021.4,020.7,000.0,030.0,023.2,025.6,0000.0,0006.94,0003.73,0003.12
2024-04-27 16:55:00,SystemResetWarning,0823.9,5.00,000.00,021.4,020.7,000.0,030.0,023.2,025.9,0000.0,0006.80,0003.72,0003.13
2024-04-27 16:56:00,SystemResetWarning,0823.9,5.00,000.00,021.4,020.7,000.0,030.0,023.2,026.1,0000.0,0006.76,0003.74,0003.15
2024-04-27 16:57:00,SystemResetWarning,0823.9,5.00,000.00,021.4,020.7,000.0,030.0,023.2,026.1,0000.0,0006.87,0003.77,0003.17
2024-04-27 16:58:00,SystemResetWarning,0823.9,5.00,000.00,021.4,020.7,000.0,030.0,023.2,025.9,0000.0,0006.93,0003.81,0003.20
2024-04-27 16:59:00,SystemResetWarning,0824.0,5.00,000.00,021.4,020.7,000.0,030.0,023.2,025.7,0000.0,0007.05,0003.83,0003.22
